TimeEDT,TemperatureF,Dew PointF,Humidity,Sea Level PressureIn,VisibilityMPH,Wind Direction,Wind SpeedMPH,Gust SpeedMPH,PrecipitationIn,Events,Conditions,WindDirDegrees,DateUTC
12:53 AM,41.0,33.1,73,30.06,10.0,WNW,3.5,-,N/A,,Overcast,300,2013-05-15 04:53:00
1:53 AM,43.0,32.0,65,30.04,10.0,Calm,Calm,-,N/A,,Overcast,0,2013-05-15 05:53:00
2:53 AM,44.1,35.1,71,30.03,10.0,Calm,Calm,-,N/A,,Overcast,0,2013-05-15 06:53:00
3:53 AM,46.0,35.1,66,30.00,10.0,Calm,Calm,-,N/A,,Overcast,0,2013-05-15 07:53:00
4:53 AM,46.0,36.0,68,30.00,10.0,South,4.6,-,N/A,,Overcast,190,2013-05-15 08:53:00
5:53 AM,46.9,35.1,63,29.99,10.0,South,4.6,-,N/A,,Overcast,170,2013-05-15 09:53:00
6:53 AM,46.9,36.0,66,29.98,10.0,South,5.8,-,N/A,,Scattered Clouds,170,2013-05-15 10:53:00
7:53 AM,50.0,35.1,57,29.97,10.0,South,10.4,-,N/A,,Overcast,170,2013-05-15 11:53:00
8:53 AM,50.0,37.0,61,29.97,10.0,South,12.7,19.6,N/A,,Overcast,170,2013-05-15 12:53:00
9:53 AM,50.0,37.9,63,29.96,10.0,South,10.4,-,0.00,,Overcast,170,2013-05-15 13:53:00
10:53 AM,52.0,42.1,69,29.93,10.0,South,10.4,17.3,0.00,Rain,Light Rain,180,2013-05-15 14:53:00
11:53 AM,55.0,43.0,64,29.88,10.0,ESE,11.5,-,N/A,,Scattered Clouds,120,2013-05-15 15:53:00
12:53 PM,59.0,44.1,58,29.88,10.0,South,11.5,21.9,N/A,,Mostly Cloudy,190,2013-05-15 16:53:00
1:53 PM,57.9,48.9,72,29.85,10.0,SSE,11.5,-,0.01,,Mostly Cloudy,160,2013-05-15 17:53:00
2:53 PM,64.0,48.9,58,29.77,10.0,South,15.0,26.5,N/A,,Clear,190,2013-05-15 18:53:00
3:53 PM,66.0,51.1,59,29.73,10.0,SSW,19.6,28.8,N/A,,Clear,200,2013-05-15 19:53:00
4:53 PM,66.9,52.0,59,29.73,10.0,SW,13.8,20.7,N/A,,Clear,220,2013-05-15 20:53:00
5:53 PM,69.1,53.1,57,29.71,10.0,WSW,9.2,19.6,N/A,,Clear,240,2013-05-15 21:53:00
6:53 PM,69.1,53.1,57,29.69,10.0,SW,17.3,23.0,N/A,,Clear,230,2013-05-15 22:53:00
7:53 PM,64.9,54.0,68,29.70,10.0,SW,10.4,-,N/A,,Clear,220,2013-05-15 23:53:00
8:53 PM,63.0,54.0,72,29.72,10.0,WSW,6.9,-,N/A,,Partly Cloudy,240,2013-05-16 00:53:00
9:53 PM,63.0,54.0,72,29.75,10.0,West,8.1,-,N/A,,Clear,260,2013-05-16 01:53:00
10:53 PM,60.1,54.0,80,29.77,10.0,NW,3.5,-,N/A,,Clear,320,2013-05-16 02:53:00
11:53 PM,54.0,52.0,93,29.77,8.0,West,3.5,-,N/A,,Clear,280,2013-05-16 03:53:00